Location: Anankanda
(14.7841°N, 3.0348°W)
Time: 01:32:10
(UTC+00:00)

Sakura Rocket - Pass Details

Date: 17 January 2021
Orbit: 476 x 1743 km, 28.7° (Epoch: 07 March)

Event Time Altitude Azimuth Distance (km) Brightness Sun altitude
Rises 19:45:52 0° 240° (WSW) 3,704 8.3 -24.3°
Reaches altitude 10° 19:48:56 10° 238° (WSW) 2,537 7.2 -25.0°
Enters shadow 19:54:31 73° 185° (S) 729 3.3 -26.3°
